sat.trackr.live / text

‹ back to catalog

STARLINK-1564

NORAD 46058 · 2020-055AH

PAYLOAD ACTIVE UNKNOWN

§ Identity

Operator
Country
US
Launch date
2020-08-07
Launch site
AFETR
Launch vehicle
Mass (kg)
RCS (m²)

Purposes: comms

External: N2YO · Heavens-Above · Gunter

§ Orbital elements

Epoch: 2026-05-25T02:25:47.616384Z

Period
94.11 min
Inclination
53.1587°
Eccentricity
0.0001646
Mean motion
15.30191970 rev/d
Perigee alt
474.1 km
Apogee alt
476.4 km
Semi-major
6,853.4 km
B*
2.4860e-6
RAAN
119.4428°
Arg perigee
85.6627°
Mean anomaly
274.4562°
Rev number
32,076

§ Raw data

STARLINK-15641 46058U 20055AH  26145.10124556 -.00000286  00000+0  24860-5 0  99982 46058  53.1587 119.4428 0001646  85.6627 274.4562 15.30191970320768

JSON: /api/v1/satellites/46058 · /tle

For live sub-satellite position, see the globe view (requires WebGL).

§ Visibility from observer

Set your observer location to see the next 7 days of passes ≥ 10°. The values pass through the URL so the page stays shareable.

No JS? Fill the form by hand. The geolocation button needs JavaScript.